Time,TemperatureF,DewpointF,PressureIn,WindDirection,WindDirectionDegrees,WindSpeedMPH,WindSpeedGustMPH,Humidity,HourlyPrecipIn,Conditions,Clouds,dailyrainin,SoftwareType,DateUTC
2013-01-23 03:23:00,-10.0,-13.0,30.23,West,275,0.0,0.0,85,0.00,,,0.00,,2013-01-23 08:23:00,
2013-01-23 03:33:00,-10.0,-13.0,30.23,West,278,0.0,2.0,85,0.00,,,0.00,,2013-01-23 08:33:00,
2013-01-23 03:43:00,-10.0,-13.0,30.23,West,278,0.0,2.0,85,0.00,,,0.00,,2013-01-23 08:43:00,
2013-01-23 03:52:00,-10.0,-13.0,30.23,NW,304,6.0,6.0,85,0.00,,,0.00,,2013-01-23 08:52:00,
2013-01-23 04:03:00,-10.0,-13.0,30.23,NW,304,6.0,6.0,85,0.00,,,0.00,,2013-01-23 09:03:00,
2013-01-23 04:10:00,-12.0,-15.0,30.24,WNW,299,5.0,5.0,86,0.00,,,0.00,,2013-01-23 09:10:00,
2013-01-23 04:12:00,-10.0,-13.0,30.23,NW,304,6.0,6.0,85,0.00,,,0.00,,2013-01-23 09:12:00,
2013-01-23 04:22:00,-11.0,-14.0,30.24,WNW,289,1.0,4.0,86,0.00,,,0.00,,2013-01-23 09:22:00,
2013-01-23 04:32:00,-12.0,-15.0,30.24,WNW,299,5.0,5.0,86,0.00,,,0.00,,2013-01-23 09:32:00,
2013-01-23 04:43:00,-12.0,-15.0,30.24,WNW,299,5.0,5.0,86,0.00,,,0.00,,2013-01-23 09:43:00,
2013-01-23 04:52:00,-12.0,-15.0,30.24,WNW,299,5.0,5.0,86,0.00,,,0.00,,2013-01-23 09:52:00,
2013-01-23 05:03:00,-12.0,-15.0,30.24,WNW,299,5.0,5.0,86,0.00,,,0.00,,2013-01-23 10:03:00,
2013-01-23 05:23:00,-12.0,-15.0,30.24,WNW,293,1.0,1.0,87,0.00,,,0.00,,2013-01-23 10:23:00,
2013-01-23 05:33:00,-13.0,-16.0,30.25,NNW,328,0.0,0.0,88,0.00,,,0.00,,2013-01-23 10:33:00,
2013-01-23 05:43:00,-13.0,-16.0,30.25,NNW,328,0.0,0.0,88,0.00,,,0.00,,2013-01-23 10:43:00,
2013-01-23 05:52:00,-13.0,-15.0,30.26,WNW,285,0.0,1.0,89,0.00,,,0.00,,2013-01-23 10:52:00,
2013-01-23 06:03:00,-13.0,-15.0,30.26,WNW,285,0.0,1.0,89,0.00,,,0.00,,2013-01-23 11:03:00,
2013-01-23 06:12:00,-13.0,-15.0,30.26,WNW,285,0.0,1.0,89,0.00,,,0.00,,2013-01-23 11:12:00,
2013-01-23 06:23:00,-13.0,-15.0,30.26,WNW,285,0.0,1.0,89,0.00,,,0.00,,2013-01-23 11:23:00,
2013-01-23 06:33:00,-14.0,-17.0,30.27,NW,312,0.0,0.0,87,0.00,,,0.00,,2013-01-23 11:33:00,
2013-01-23 06:43:00,-14.0,-17.0,30.27,NW,312,0.0,0.0,87,0.00,,,0.00,,2013-01-23 11:43:00,
2013-01-23 06:53:00,-14.0,-17.0,30.27,West,273,0.0,0.0,87,0.00,,,0.00,,2013-01-23 11:53:00,
2013-01-23 07:03:00,-14.0,-17.0,30.27,West,273,0.0,0.0,87,0.00,,,0.00,,2013-01-23 12:03:00,
2013-01-23 07:10:00,-15.0,-17.0,30.27,NW,313,0.0,0.0,88,0.00,,,0.00,,2013-01-23 12:10:00,
2013-01-23 07:13:00,-14.0,-17.0,30.27,West,273,0.0,0.0,87,0.00,,,0.00,,2013-01-23 12:13:00,
2013-01-23 07:22:00,-14.0,-17.0,30.27,West,273,0.0,0.0,87,0.00,,,0.00,,2013-01-23 12:22:00,
2013-01-23 07:33:00,-15.0,-17.0,30.27,NW,313,0.0,0.0,88,0.00,,,0.00,,2013-01-23 12:33:00,
2013-01-23 07:43:00,-15.0,-17.0,30.27,NW,313,0.0,0.0,88,0.00,,,0.00,,2013-01-23 12:43:00,
2013-01-23 07:53:00,-15.0,-17.0,30.27,NW,313,0.0,0.0,88,0.00,,,0.00,,2013-01-23 12:53:00,
2013-01-23 08:04:00,-15.0,-17.0,30.27,NW,313,0.0,0.0,88,0.00,,,0.00,,2013-01-23 13:04:00,